Simultaneous Nadir Overpasses (SNOs) Predictions

Prediction of SNOs between AQUA and METOP-B Satellite Orbit:

Table of predicted SNOs for the next 14.0 days since TLE Epoch: 9/24/2022
Index Date (AQUA) Time (AQUA) Lat,Lon (AQUA) SZA (AQUA ) Date (METOP-B) Time (METOP-B) Lat,Lon (METOP-B) SZA (METOP-B ) Distance(km) Time Diff (sec)
1 09/26/2022 02:45:26 -73.40, -45.11 105.50 09/26/2022 02:44:20 -73.38, -47.86 105.46 87.61 66
2 09/26/2022 03:35:06 74.08, 121.02 75.23 09/26/2022 03:34:46 74.07, 121.08 75.21 2.54 20
3 09/26/2022 04:24:32 -74.12, -71.43 104.72 09/26/2022 04:25:27 -74.11, -71.48 104.74 2.31 55
4 09/28/2022 22:19:05 -74.05, 20.10 103.73 09/28/2022 22:18:31 -74.04, 20.08 103.74 1.93 34
5 09/28/2022 23:08:33 74.12,-172.41 76.36 09/28/2022 23:09:09 74.12,-172.38 76.36 1.03 36
6 10/01/2022 17:03:06 74.03, -80.83 77.33 10/01/2022 17:02:14 74.04, -80.84 77.34 1.12 52
7 10/01/2022 17:52:33 -74.12, 86.61 102.57 10/01/2022 17:52:55 -74.09, 86.61 102.60 3.26 22
8 10/04/2022 11:47:05 -74.00, 178.25 101.63 10/04/2022 11:46:00 -74.01, 178.15 101.62 3.13 65
9 10/04/2022 12:36:33 74.07, -14.28 78.46 10/04/2022 12:36:38 74.08, -14.33 78.47 1.94 5
10 10/04/2022 13:26:04 -74.37, 152.68 101.23 10/04/2022 13:27:15 -74.33, 153.63 101.28 28.75 71
11 10/07/2022 06:30:58 73.67, 77.99 79.10 10/07/2022 06:29:49 73.64, 76.35 79.09 51.65 69
12 10/07/2022 07:20:31 -74.07,-115.26 100.48 10/07/2022 07:20:22 -74.10,-115.23 100.46 2.66 9
13 10/07/2022 08:09:59 74.15, 52.21 79.61 10/07/2022 08:11:00 74.17, 52.29 79.63 3.04 61



Historial Predications of SNOs between AQUA and METOP-B
